65689 UUMU-UUMU

Flight info

Callsign 65689
Flight time 0h 14m
Altitude 6000
Route RA/A060
Aircraft T134/M-SDE3GHIJ2J3J5M1RVWXYZ/LB2D1

Departure

Time 2026-05-08 17:53
Airport Chkalovskiy Air Base (UUMU)

Arrival

Time 2026-05-08 18:07
Airport Chkalovskiy Air Base (UUMU)
Time Latitude Longitude Altitude Speed Heading
2026-05-08 17:36 55.88277 38.03066 507 ft 0 kts 100°
2026-05-08 17:47 55.88273 38.03109 507 ft 4 kts 99°
2026-05-08 17:48 55.88292 38.03154 507 ft 10 kts 16°
2026-05-08 17:48 55.88386 38.03184 507 ft 15 kts 11°
2026-05-08 17:48 55.88497 38.03252 507 ft 19 kts 33°
2026-05-08 17:48 55.88643 38.03369 507 ft 21 kts 63°
2026-05-08 17:49 55.88631 38.03636 507 ft 23 kts 81°
2026-05-08 17:49 55.88768 38.03764 507 ft 27 kts 28°
2026-05-08 17:49 55.88763 38.03995 507 ft 26 kts 132°
2026-05-08 17:49 55.88593 38.04339 507 ft 47 kts 132°
2026-05-08 17:50 55.88349 38.04834 507 ft 54 kts 130°
2026-05-08 17:50 55.88100 38.05351 507 ft 54 kts 133°
2026-05-08 17:50 55.87866 38.05846 507 ft 52 kts 130°
2026-05-08 17:50 55.87637 38.06338 507 ft 51 kts 129°
2026-05-08 17:51 55.87406 38.06818 507 ft 50 kts 131°
2026-05-08 17:51 55.87233 38.07250 507 ft 29 kts 75°
2026-05-08 17:51 55.87387 38.07359 507 ft 25 kts
2026-05-08 17:51 55.87557 38.07306 507 ft 17 kts 311°
2026-05-08 17:52 55.87566 38.07287 507 ft 0 kts 309°
2026-05-08 17:52 55.87614 38.07181 507 ft 43 kts 310°
2026-05-08 17:52 55.88673 38.04993 647 ft 168 kts 311°
2026-05-08 17:53 55.89549 38.03269 891 ft 203 kts 312°
2026-05-08 17:53 55.90490 38.01467 1230 ft 189 kts 314°
2026-05-08 17:53 55.91445 37.99830 1670 ft 199 kts 316°
2026-05-08 17:53 55.92543 37.98274 2013 ft 215 kts 336°
2026-05-08 17:54 55.94114 37.97971 1985 ft 239 kts 11°
2026-05-08 17:54 55.95496 37.99252 2185 ft 213 kts 36°
2026-05-08 17:54 55.96620 38.00775 2260 ft 196 kts 45°
2026-05-08 17:54 55.97270 38.02856 2160 ft 188 kts 85°
2026-05-08 17:55 55.97143 38.05186 2414 ft 202 kts 109°
2026-05-08 17:55 55.96337 38.07406 2157 ft 229 kts 130°
2026-05-08 17:55 55.95285 38.09543 2565 ft 223 kts 133°
2026-05-08 17:55 55.94175 38.11620 2397 ft 230 kts 135°
2026-05-08 17:56 55.93073 38.13534 2383 ft 210 kts 137°
2026-05-08 17:56 55.92059 38.15283 2211 ft 201 kts 136°
2026-05-08 17:56 55.91574 38.16122 2079 ft 199 kts 135°
2026-05-08 17:56 55.90974 38.17217 2017 ft 191 kts 133°
2026-05-08 17:57 55.90403 38.18372 2215 ft 172 kts 129°
2026-05-08 17:57 55.89550 38.20085 1730 ft 211 kts 133°
2026-05-08 17:57 55.88374 38.22001 1658 ft 246 kts 146°
2026-05-08 17:57 55.86743 38.22970 1900 ft 248 kts 179°
2026-05-08 17:58 55.85119 38.22102 2233 ft 252 kts 213°
2026-05-08 17:58 55.83622 38.20346 2424 ft 272 kts 213°
2026-05-08 17:58 55.82328 38.17912 2336 ft 265 kts 244°
2026-05-08 17:58 55.82144 38.14764 1881 ft 260 kts 285°
2026-05-08 17:59 55.83133 38.12312 1909 ft 234 kts 315°
2026-05-08 17:59 55.84245 38.10382 1972 ft 217 kts 313°
2026-05-08 17:59 55.85286 38.08390 1853 ft 226 kts 313°
2026-05-08 17:59 55.86388 38.06354 2219 ft 226 kts 314°
2026-05-08 18:00 55.87522 38.04367 2328 ft 240 kts 316°
2026-05-08 18:00 55.90213 38.00172 2292 ft 272 kts 320°
2026-05-08 18:00 55.91781 37.98438 2202 ft 258 kts 340°
2026-05-08 18:01 55.93495 37.98223 2003 ft 245 kts 13°
2026-05-08 18:01 55.94992 37.99409 1857 ft 230 kts 36°
2026-05-08 18:01 55.96212 38.01063 2014 ft 207 kts 39°
2026-05-08 18:01 55.97174 38.02913 1991 ft 209 kts 68°
2026-05-08 18:02 55.97240 38.05503 1888 ft 224 kts 113°
2026-05-08 18:02 55.96673 38.07142 1959 ft 232 kts 127°
2026-05-08 18:02 55.95195 38.10219 2108 ft 258 kts 133°
2026-05-08 18:02 55.93928 38.12602 2305 ft 270 kts 134°
2026-05-08 18:03 55.92636 38.14932 2283 ft 263 kts 135°
2026-05-08 18:03 55.91394 38.17301 2175 ft 250 kts 131°
2026-05-08 18:03 55.90285 38.19544 2104 ft 236 kts 131°
2026-05-08 18:03 55.89209 38.21678 1992 ft 231 kts 133°
2026-05-08 18:04 55.87962 38.23499 1927 ft 224 kts 154°
2026-05-08 18:04 55.86523 38.23998 1864 ft 206 kts 193°
2026-05-08 18:04 55.85311 38.22785 1691 ft 202 kts 219°
2026-05-08 18:04 55.84262 38.21099 1656 ft 202 kts 232°
2026-05-08 18:05 55.83766 38.18801 1460 ft 193 kts 264°
2026-05-08 18:05 55.83874 38.16534 1534 ft 186 kts 283°
2026-05-08 18:05 55.84376 38.14357 1483 ft 186 kts 297°
2026-05-08 18:05 55.85067 38.12584 1321 ft 166 kts 309°
2026-05-08 18:06 55.85833 38.10950 1113 ft 177 kts 309°
2026-05-08 18:06 55.86614 38.09325 792 ft 170 kts 309°
2026-05-08 18:06 55.87353 38.07752 539 ft 159 kts 309°
2026-05-08 18:06 55.88028 38.06329 507 ft 136 kts 309°
2026-05-08 18:07 55.88486 38.05364 507 ft 80 kts 310°
2026-05-08 18:07 55.88806 38.04744 507 ft 60 kts 312°
2026-05-08 18:07 55.88979 38.04324 507 ft 24 kts 277°
2026-05-08 18:07 55.88916 38.04245 507 ft 9 kts 185°
2026-05-08 18:08 55.88851 38.04234 507 ft 4 kts 190°
2026-05-08 18:08 55.88782 38.04208 507 ft 20 kts 192°
2026-05-08 18:08 55.88590 38.04394 507 ft 50 kts 131°
2026-05-08 18:08 55.88319 38.04939 507 ft 58 kts 131°
2026-05-08 18:09 55.88059 38.05485 507 ft 57 kts 130°
2026-05-08 18:09 55.87806 38.06016 507 ft 56 kts 131°
2026-05-08 18:09 55.87550 38.06543 507 ft 54 kts 129°
2026-05-08 18:09 55.87306 38.07046 507 ft 52 kts 133°
2026-05-08 18:10 55.87308 38.07335 507 ft 18 kts
2026-05-08 18:10 55.87482 38.07361 507 ft 33 kts 340°
2026-05-08 18:10 55.87810 38.06762 507 ft 108 kts 309°
2026-05-08 18:10 55.87979 38.06392 507 ft 129 kts 310°
2026-05-08 18:11 55.88529 38.05277 518 ft 174 kts 311°
2026-05-08 18:11 55.89438 38.03496 804 ft 212 kts 313°
2026-05-08 18:11 55.90445 38.01576 1437 ft 221 kts 320°
2026-05-08 18:11 55.91910 38.00561 1495 ft 245 kts
2026-05-08 18:12 55.93550 38.01709 1669 ft 261 kts 33°
2026-05-08 18:12 55.95018 38.03672 1816 ft 277 kts 49°
2026-05-08 18:12 55.95748 38.06760 1695 ft 263 kts 90°
2026-05-08 18:12 55.95279 38.09764 1431 ft 250 kts 124°
2026-05-08 18:13 55.94310 38.12217 1493 ft 231 kts 125°
2026-05-08 18:13 55.93439 38.14531 1569 ft 220 kts 124°
2026-05-08 18:13 55.92559 38.16718 1565 ft 218 kts 127°
2026-05-08 18:13 55.91660 38.18884 1617 ft 214 kts 127°
2026-05-08 18:14 55.90793 38.20921 1630 ft 211 kts 128°
2026-05-08 18:14 55.90548 38.21471 1646 ft 211 kts 129°
2026-05-08 18:14 55.89585 38.23508 1610 ft 222 kts 132°
2026-05-08 18:15 55.88317 38.25165 1402 ft 232 kts 162°
2026-05-08 18:15 55.86717 38.25252 1356 ft 232 kts 199°
2026-05-08 18:15 55.85382 38.23725 1680 ft 233 kts 219°
2026-05-08 18:15 55.84248 38.21850 1777 ft 214 kts 236°
2026-05-08 18:16 55.83865 38.19342 1414 ft 220 kts 277°
2026-05-08 18:16 55.84320 38.16749 1491 ft 213 kts 290°
2026-05-08 18:16 55.84843 38.14428 1269 ft 191 kts 292°
2026-05-08 18:16 55.85351 38.12380 1082 ft 178 kts 296°
2026-05-08 18:17 55.86034 38.10528 956 ft 179 kts 308°
2026-05-08 18:17 55.86832 38.08875 668 ft 179 kts 310°
2026-05-08 18:17 55.87607 38.07245 514 ft 165 kts 310°
2026-05-08 18:17 55.88247 38.05874 507 ft 100 kts 308°
2026-05-08 18:18 55.88653 38.05027 507 ft 67 kts 309°
2026-05-08 18:18 55.88894 38.04520 507 ft 41 kts 310°
2026-05-08 18:18 55.88995 38.04303 507 ft 19 kts 295°
2026-05-08 18:18 55.88940 38.04225 507 ft 16 kts 151°
2026-05-08 18:19 55.88759 38.04195 507 ft 39 kts 193°
2026-05-08 18:19 55.88547 38.04430 507 ft 35 kts 129°
2026-05-08 18:19 55.88511 38.04505 507 ft 0 kts 129°
2026-05-08 18:23 55.88497 38.04535 507 ft 16 kts 128°
2026-05-08 18:23 55.88341 38.04875 507 ft 46 kts 130°
2026-05-08 18:23 55.88086 38.05398 507 ft 61 kts 131°
2026-05-08 18:23 55.87809 38.05958 507 ft 59 kts 128°
2026-05-08 18:24 55.87551 38.06522 507 ft 57 kts 130°
2026-05-08 18:24 55.87302 38.07044 507 ft 42 kts 122°
2026-05-08 18:24 55.87319 38.07342 507 ft 21 kts 13°
2026-05-08 18:24 55.87510 38.07360 507 ft 29 kts 340°
2026-05-08 18:25 55.87584 38.07248 507 ft 0 kts 311°
2026-05-08 18:25 55.87590 38.07234 507 ft 3 kts 311°
2026-05-08 18:25 55.87613 38.07188 507 ft 9 kts 310°
2026-05-08 18:25 55.87824 38.06745 507 ft 89 kts 310°
2026-05-08 18:26 55.88394 38.05560 508 ft 158 kts 310°
2026-05-08 18:26 55.89214 38.03900 733 ft 197 kts 311°
2026-05-08 18:26 55.90156 38.02021 1155 ft 208 kts 311°
2026-05-08 18:26 55.91294 38.00516 1335 ft 212 kts 341°
2026-05-08 18:27 55.92831 38.00510 1545 ft 236 kts 20°
2026-05-08 18:27 55.93744 38.01342 2008 ft 205 kts 32°
2026-05-08 18:27 55.95081 38.03390 1879 ft 189 kts 63°
2026-05-08 18:27 55.95470 38.05502 2093 ft 174 kts 82°
2026-05-08 18:28 55.95307 38.07787 1891 ft 204 kts 112°
2026-05-08 18:28 55.94568 38.09942 1972 ft 209 kts 128°
2026-05-08 18:28 55.93641 38.12048 1743 ft 219 kts 131°
2026-05-08 18:28 55.92634 38.14001 1707 ft 211 kts 132°
2026-05-08 18:29 55.91646 38.15942 1633 ft 207 kts 134°
2026-05-08 18:29 55.90604 38.17707 1489 ft 211 kts 136°
2026-05-08 18:29 55.89572 38.19720 1599 ft 225 kts 131°
2026-05-08 18:29 55.88625 38.21911 1783 ft 220 kts 126°
2026-05-08 18:30 55.87537 38.23831 1526 ft 222 kts 150°
2026-05-08 18:30 55.86087 38.24466 1532 ft 221 kts 190°
2026-05-08 18:30 55.84640 38.23231 1592 ft 232 kts 213°
2026-05-08 18:30 55.83391 38.21423 1737 ft 239 kts 233°
2026-05-08 18:31 55.83019 38.18658 1572 ft 233 kts 282°
2026-05-08 18:31 55.83741 38.16305 1375 ft 199 kts 305°
2026-05-08 18:31 55.84460 38.14509 1418 ft 164 kts 304°
2026-05-08 18:31 55.85084 38.12906 1207 ft 149 kts 303°
2026-05-08 18:32 55.85674 38.11415 1080 ft 146 kts 306°
2026-05-08 18:32 55.86272 38.10040 791 ft 140 kts 309°
2026-05-08 18:32 55.86939 38.08644 617 ft 147 kts 309°
2026-05-08 18:32 55.87580 38.07303 512 ft 141 kts 310°
2026-05-08 18:33 55.88147 38.06084 507 ft 101 kts 308°
2026-05-08 18:33 55.88517 38.05310 507 ft 75 kts 309°
2026-05-08 18:33 55.88800 38.04709 507 ft 47 kts 313°
2026-05-08 18:33 55.88963 38.04385 507 ft 19 kts 310°
2026-05-08 18:34 55.88983 38.04276 507 ft 8 kts 247°
2026-05-08 18:34 55.88940 38.04256 507 ft 9 kts 174°
2026-05-08 18:34 55.88818 38.04218 507 ft 20 kts 190°
2026-05-08 18:34 55.88670 38.04225 507 ft 25 kts 143°
2026-05-08 18:35 55.88527 38.04515 507 ft 38 kts 132°
2026-05-08 18:35 55.88315 38.04934 507 ft 52 kts 132°
2026-05-08 18:35 55.88055 38.05454 507 ft 56 kts 133°
2026-05-08 18:35 55.87809 38.05973 507 ft 54 kts 130°
2026-05-08 18:36 55.87564 38.06469 507 ft 52 kts 131°
2026-05-08 18:36 55.87333 38.06944 507 ft 42 kts 130°
2026-05-08 18:36 55.87234 38.07250 507 ft 20 kts 83°
2026-05-08 18:36 55.87300 38.07339 507 ft 10 kts 359°
2026-05-08 18:37 55.87391 38.07353 507 ft 19 kts
2026-05-08 18:37 55.87517 38.07357 507 ft 13 kts 339°
2026-05-08 18:37 55.87561 38.07295 507 ft 8 kts 312°
2026-05-08 18:37 55.87574 38.07268 507 ft 0 kts 309°
2026-05-08 18:39 55.87650 38.07106 507 ft 57 kts 309°
2026-05-08 18:39 55.88103 38.06167 507 ft 138 kts 310°
2026-05-08 18:39 55.88586 38.05159 559 ft 175 kts 310°
2026-05-08 18:39 55.89449 38.03429 1005 ft 207 kts 311°
2026-05-08 18:40 55.90483 38.01533 1513 ft 200 kts 327°
2026-05-08 18:40 55.91752 38.01028 1469 ft 203 kts 12°
2026-05-08 18:40 55.93109 38.02311 1838 ft 233 kts 34°
2026-05-08 18:40 55.94138 38.04479 1926 ft 237 kts 74°
2026-05-08 18:41 55.94150 38.07424 1883 ft 246 kts 107°
2026-05-08 18:41 55.93248 38.10143 1688 ft 263 kts 123°
2026-05-08 18:41 55.92326 38.12954 1933 ft 262 kts 120°
2026-05-08 18:41 55.91999 38.13972 1871 ft 258 kts 120°
2026-05-08 18:42 55.91297 38.16079 1670 ft 249 kts 127°
2026-05-08 18:42 55.90270 38.18389 1651 ft 230 kts 129°
2026-05-08 18:43 55.89560 38.19907 1616 ft 223 kts 130°
2026-05-08 18:43 55.88965 38.21137 1706 ft 213 kts 131°
2026-05-08 18:43 55.87928 38.22879 1710 ft 198 kts 153°
2026-05-08 18:44 55.86622 38.23101 1684 ft 189 kts 201°
2026-05-08 18:44 55.85519 38.21904 1869 ft 188 kts 217°
2026-05-08 18:44 55.84549 38.20331 1944 ft 188 kts 237°
2026-05-08 18:44 55.84085 38.18041 1730 ft 210 kts 260°
2026-05-08 18:45 55.84204 38.15420 1305 ft 209 kts 289°
2026-05-08 18:45 55.84811 38.13402 1429 ft 166 kts 302°
2026-05-08 18:45 55.85521 38.11696 1290 ft 182 kts 308°
2026-05-08 18:45 55.86302 38.09981 951 ft 173 kts 309°
2026-05-08 18:46 55.87053 38.08382 594 ft 167 kts 309°
2026-05-08 18:46 55.87793 38.06841 508 ft 154 kts 310°
2026-05-08 18:46 55.88334 38.05679 507 ft 90 kts 310°
2026-05-08 18:46 55.88687 38.04940 507 ft 66 kts 308°
2026-05-08 18:47 55.88922 38.04480 507 ft 32 kts 324°
2026-05-08 18:47 55.88920 38.04262 507 ft 20 kts 199°
2026-05-08 18:47 55.88746 38.04198 507 ft 31 kts 186°
2026-05-08 18:47 55.88568 38.04452 507 ft 46 kts 132°
2026-05-08 18:48 55.88339 38.04891 507 ft 47 kts 130°
2026-05-08 18:48 55.88121 38.05334 507 ft 48 kts 132°
2026-05-08 18:48 55.87909 38.05776 507 ft 47 kts 131°
2026-05-08 18:48 55.87851 38.05895 507 ft 48 kts 131°
2026-05-08 18:50 55.87752 38.06094 507 ft 48 kts 130°
2026-05-08 18:50 55.87540 38.06543 507 ft 47 kts 128°
2026-05-08 18:50 55.87328 38.06979 507 ft 38 kts 127°
2026-05-08 18:51 55.87231 38.07209 507 ft 13 kts 105°
2026-05-08 18:51 55.87246 38.07320 507 ft 13 kts 52°
2026-05-08 18:51 55.87339 38.07343 507 ft 15 kts
2026-05-08 18:51 55.87422 38.07371 507 ft 9 kts 11°
2026-05-08 18:52 55.87426 38.07373 507 ft 7 kts 10°
2026-05-08 18:52 55.87463 38.07383 507 ft 13 kts
2026-05-08 18:52 55.87570 38.07268 507 ft 11 kts 313°
2026-05-08 18:52 55.87574 38.07261 507 ft 0 kts 313°
2026-05-08 18:55 55.88261 38.05834 508 ft 154 kts 310°
2026-05-08 18:55 55.89063 38.04214 821 ft 193 kts 311°
2026-05-08 18:55 55.90072 38.02515 1272 ft 207 kts 321°
2026-05-08 18:56 55.91408 38.01737 1407 ft 209 kts
2026-05-08 18:56 55.92743 38.02611 1647 ft 199 kts 31°
2026-05-08 18:56 55.93839 38.03983 1852 ft 196 kts 48°
2026-05-08 18:56 55.94505 38.06171 1863 ft 225 kts 78°
2026-05-08 18:57 55.94467 38.09048 1818 ft 230 kts 108°
2026-05-08 18:57 55.94013 38.10686 1796 ft 218 kts 123°
2026-05-08 18:57 55.92976 38.13594 1780 ft 192 kts 122°
2026-05-08 18:57 55.92278 38.15565 1672 ft 187 kts 124°
2026-05-08 18:58 55.91771 38.16891 1701 ft 196 kts 126°
2026-05-08 18:58 55.91313 38.18030 1798 ft 205 kts 127°
2026-05-08 18:58 55.90415 38.20217 1848 ft 226 kts 126°
2026-05-08 18:58 55.89506 38.22559 1869 ft 231 kts 123°
2026-05-08 18:59 55.88609 38.24852 1590 ft 225 kts 136°
2026-05-08 18:59 55.87247 38.25844 1514 ft 202 kts 180°
2026-05-08 18:59 55.85975 38.25325 1607 ft 185 kts 206°
2026-05-08 18:59 55.84784 38.24131 1763 ft 203 kts 209°
2026-05-08 19:00 55.83530 38.22771 2019 ft 221 kts 222°
2026-05-08 19:00 55.82807 38.20312 2023 ft 229 kts 263°
2026-05-08 19:00 55.83017 38.17614 2001 ft 214 kts 290°
2026-05-08 19:00 55.83652 38.15331 1692 ft 203 kts 307°
2026-05-08 19:01 55.84537 38.13579 1562 ft 176 kts 313°
2026-05-08 19:01 55.85331 38.12062 1335 ft 163 kts 310°
2026-05-08 19:01 55.86065 38.10508 1062 ft 165 kts 308°
2026-05-08 19:01 55.86797 38.08919 738 ft 164 kts 309°
2026-05-08 19:02 55.87505 38.07447 521 ft 148 kts 309°
2026-05-08 19:02 55.88100 38.06183 507 ft 111 kts 309°
2026-05-08 19:02 55.88488 38.05336 507 ft 82 kts 309°
2026-05-08 19:02 55.88767 38.04718 507 ft 46 kts 315°
2026-05-08 19:03 55.88992 38.04361 507 ft 31 kts 285°
2026-05-08 19:03 55.88888 38.04243 507 ft 16 kts 172°
2026-05-08 19:03 55.88746 38.04188 507 ft 23 kts 194°
2026-05-08 19:03 55.88642 38.04255 507 ft 14 kts 131°
2026-05-08 19:04 55.88551 38.04443 507 ft 28 kts 130°
2026-05-08 19:04 55.88499 38.04550 507 ft 34 kts 130°
2026-05-08 19:05 55.88309 38.04943 507 ft 49 kts 131°
2026-05-08 19:05 55.88070 38.05445 507 ft 54 kts 130°
2026-05-08 19:05 55.87833 38.05937 507 ft 47 kts 131°
2026-05-08 19:05 55.87619 38.06378 507 ft 47 kts 129°
2026-05-08 19:06 55.87404 38.06827 507 ft 48 kts 131°
2026-05-08 19:06 55.87246 38.07187 507 ft 24 kts 93°
2026-05-08 19:06 55.87322 38.07350 507 ft 12 kts 358°
2026-05-08 19:06 55.87362 38.07353 507 ft 0 kts
2026-05-08 19:07 55.87363 38.07353 507 ft 4 kts
2026-05-08 19:07 55.87456 38.07375 507 ft 14 kts 11°
2026-05-08 19:07 55.87532 38.07357 507 ft 3 kts 318°
2026-05-08 19:07 55.87542 38.07337 507 ft 0 kts 311°
2026-05-08 19:08 55.87564 38.07291 507 ft 32 kts 310°
2026-05-08 19:08 55.87921 38.06546 507 ft 121 kts 310°
2026-05-08 19:09 55.88611 38.05120 660 ft 175 kts 310°
2026-05-08 19:09 55.89540 38.03254 956 ft 221 kts 311°
2026-05-08 19:09 55.90670 38.01302 1356 ft 237 kts 330°
2026-05-08 19:09 55.92276 38.00682 1475 ft 243 kts
2026-05-08 19:10 55.93815 38.01846 1513 ft 232 kts 32°
2026-05-08 19:10 55.95041 38.03389 1701 ft 204 kts 47°
2026-05-08 19:10 55.95673 38.05545 1632 ft 195 kts 79°
2026-05-08 19:10 55.95687 38.07967 1507 ft 195 kts 101°
2026-05-08 19:11 55.95154 38.10157 1408 ft 198 kts 124°
2026-05-08 19:11 55.94421 38.12175 1735 ft 201 kts 123°
2026-05-08 19:11 55.93583 38.14471 1649 ft 223 kts 124°
2026-05-08 19:11 55.92650 38.16534 1559 ft 209 kts 134°
2026-05-08 19:12 55.91682 38.18274 1668 ft 189 kts 133°
2026-05-08 19:12 55.90838 38.20110 1595 ft 190 kts 129°
2026-05-08 19:12 55.90020 38.21968 1670 ft 193 kts 128°
2026-05-08 19:12 55.89136 38.23912 1592 ft 210 kts 131°
2026-05-08 19:13 55.87966 38.25559 1429 ft 220 kts 162°
2026-05-08 19:13 55.86488 38.25473 1324 ft 217 kts 207°
2026-05-08 19:13 55.85263 38.24075 1772 ft 209 kts 214°
2026-05-08 19:13 55.84049 38.22420 1676 ft 232 kts 219°
2026-05-08 19:14 55.83199 38.20997 1559 ft 240 kts 231°
2026-05-08 19:14 55.82628 38.18500 1810 ft 207 kts 267°
2026-05-08 19:14 55.83037 38.16094 1507 ft 213 kts 306°
2026-05-08 19:14 55.84081 38.14294 1491 ft 200 kts 320°
2026-05-08 19:15 55.85027 38.12784 1508 ft 202 kts 313°
2026-05-08 19:15 55.85343 38.12178 1482 ft 201 kts 311°
2026-05-08 19:15 55.86242 38.10245 1005 ft 196 kts 307°
2026-05-08 19:15 55.87023 38.08440 635 ft 180 kts 308°
2026-05-08 19:16 55.87790 38.06825 507 ft 156 kts 310°
2026-05-08 19:16 55.88344 38.05669 507 ft 104 kts 311°
2026-05-08 19:16 55.88757 38.04810 507 ft 58 kts 311°
2026-05-08 19:16 55.88978 38.04358 507 ft 38 kts 301°
2026-05-08 19:17 55.88929 38.04234 507 ft 16 kts 168°
2026-05-08 19:17 55.88803 38.04213 507 ft 20 kts 192°
2026-05-08 19:17 55.88660 38.04242 507 ft 23 kts 130°
2026-05-08 19:17 55.88547 38.04470 507 ft 25 kts 131°
2026-05-08 19:18 55.88423 38.04731 507 ft 29 kts 130°
2026-05-08 19:18 55.88281 38.05022 507 ft 32 kts 131°
2026-05-08 19:18 55.88129 38.05336 507 ft 35 kts 130°
2026-05-08 19:18 55.87962 38.05685 507 ft 39 kts 130°
2026-05-08 19:19 55.87769 38.06075 507 ft 44 kts 131°
2026-05-08 19:19 55.87564 38.06517 507 ft 47 kts 128°
2026-05-08 19:19 55.87350 38.06949 507 ft 46 kts 130°
2026-05-08 19:19 55.87235 38.07269 507 ft 21 kts 56°
2026-05-08 19:20 55.87436 38.07367 507 ft 35 kts
2026-05-08 19:20 55.87556 38.07298 507 ft 24 kts 308°
2026-05-08 19:20 55.87792 38.06811 507 ft 80 kts 310°
2026-05-08 19:20 55.88309 38.05738 508 ft 154 kts 311°
2026-05-08 19:21 55.89138 38.04111 776 ft 202 kts 312°
2026-05-08 19:21 55.90186 38.02121 1001 ft 232 kts 313°
2026-05-08 19:21 55.91341 38.00058 1359 ft 238 kts 318°
2026-05-08 19:21 55.92816 37.98768 1520 ft 240 kts 355°
2026-05-08 19:22 55.94405 37.99371 1758 ft 236 kts 26°
2026-05-08 19:22 55.95861 38.00729 1791 ft 242 kts 36°
2026-05-08 19:22 55.96919 38.03110 1798 ft 247 kts 72°
2026-05-08 19:22 55.96930 38.06132 1728 ft 254 kts 111°
2026-05-08 19:23 55.96042 38.08866 1834 ft 253 kts 123°
2026-05-08 19:23 55.95104 38.11416 1846 ft 237 kts 124°
2026-05-08 19:23 55.94185 38.13776 1669 ft 228 kts 126°
2026-05-08 19:23 55.93283 38.15916 1751 ft 211 kts 130°
2026-05-08 19:24 55.92312 38.17929 1646 ft 211 kts 130°
2026-05-08 19:24 55.91404 38.19943 1657 ft 208 kts 127°
2026-05-08 19:24 55.90534 38.21977 1731 ft 202 kts 129°
2026-05-08 19:24 55.89645 38.23864 1813 ft 203 kts 133°
2026-05-08 19:25 55.88440 38.25130 1587 ft 205 kts 171°
2026-05-08 19:25 55.87056 38.24851 1417 ft 205 kts 207°
2026-05-08 19:25 55.85857 38.23636 1635 ft 196 kts 211°
2026-05-08 19:25 55.84656 38.22271 1609 ft 212 kts 214°
2026-05-08 19:26 55.83601 38.20460 1636 ft 209 kts 242°
2026-05-08 19:26 55.83324 38.19288 1546 ft 212 kts 255°
2026-05-08 19:26 55.83281 38.16613 1480 ft 216 kts 283°
2026-05-08 19:26 55.83964 38.14509 1362 ft 184 kts 318°
2026-05-08 19:27 55.84853 38.13063 1313 ft 168 kts 311°
2026-05-08 19:27 55.85566 38.11556 1146 ft 157 kts 309°
2026-05-08 19:27 55.86240 38.10080 895 ft 150 kts 309°
2026-05-08 19:27 55.86900 38.08692 638 ft 143 kts 310°
2026-05-08 19:28 55.87524 38.07404 508 ft 131 kts 310°
2026-05-08 19:28 55.88043 38.06316 507 ft 93 kts 310°
2026-05-08 19:28 55.88391 38.05589 507 ft 75 kts 310°
2026-05-08 19:28 55.88747 38.04847 507 ft 81 kts 310°
2026-05-08 19:29 55.89008 38.04282 507 ft 25 kts 297°
2026-05-08 19:29 55.88979 38.04217 507 ft 15 kts 159°
2026-05-08 19:29 55.88848 38.04227 507 ft 27 kts 191°
2026-05-08 19:29 55.88773 38.03986 507 ft 34 kts 313°
2026-05-08 19:30 55.88777 38.03770 507 ft 20 kts 204°
2026-05-08 19:30 55.88636 38.03630 507 ft 19 kts 276°
2026-05-08 19:30 55.88647 38.03374 507 ft 24 kts 238°
2026-05-08 19:30 55.88488 38.03235 507 ft 31 kts 206°
2026-05-08 19:31 55.88342 38.03168 507 ft 0 kts 195°